KD0RXN-4 Weather Reports


Display with metric or nautical units.
time (UTC)temp
F
wind
direction
speed
MPH
gust
MPH
rain 1hr
in
rain 24hr
in
rain mn
in
humidity
%
barometer
mb
20260508082522 55 178 0.0 0.0 0.00 0.00 0.00 68 1010.5
20260508082026 55 202 0.0 0.0 0.00 0.00 0.00 68 1010.6
20260508081531 55 190 0.0 0.0 0.00 0.00 0.00 67 1010.6
20260508081036 55 200 0.0 0.0 0.00 0.00 0.00 67 1010.7
20260508080521 55 204 0.0 0.0 0.00 0.00 0.00 67 1010.7
20260508080045 55 183 0.0 1.0 0.00 0.00 0.00 67 1010.6
20260508075550 55 231 0.0 1.0 0.00 0.00 0.00 67 1010.7
20260508075030 55 178 0.0 1.0 0.00 0.00 0.00 66 1010.7
20260508074556 55 202 0.0 1.0 0.00 0.00 0.00 66 1010.8
20260508074101 56 205 0.0 1.0 0.00 0.00 0.00 65 1010.8
20260508073524 56 198 0.0 1.0 0.00 0.00 0.00 65 1010.8
20260508073030 56 223 0.0 2.0 0.00 0.00 0.00 64 1010.8
20260508072534 56 176 0.0 2.0 0.00 0.00 0.00 64 1010.8
20260508072037 56 209 0.0 1.0 0.00 0.00 0.00 64 1010.8
20260508071542 56 196 0.0 0.0 0.00 0.00 0.00 64 1010.9
20260508071027 56 178 0.0 0.0 0.00 0.00 0.00 64 1010.9
20260508070532 56 192 0.0 0.0 0.00 0.00 0.00 65 1010.9
20260508070035 56 190 0.0 0.0 0.00 0.00 0.00 65 1011.0
20260508065520 56 182 0.0 0.0 0.00 0.00 0.00 66 1011.0
20260508065023 56 190 0.0 0.0 0.00 0.00 0.00 65 1011.0
20260508064527 56 212 0.0 0.0 0.00 0.00 0.00 65 1011.1
20260508064034 56 207 0.0 0.0 0.00 0.00 0.00 66 1011.2
20260508063523 56 164 0.0 0.0 0.00 0.00 0.00 65 1011.3
20260508063025 56 163 0.0 0.0 0.00 0.00 0.00 65 1011.3
20260508062529 56 189 0.0 0.0 0.00 0.00 0.00 65 1011.4
20260508062033 56 208 0.0 0.0 0.00 0.00 0.00 65 1011.4
20260508061539 56 175 0.0 0.0 0.00 0.00 0.00 65 1011.5
20260508061020 56 191 0.0 0.0 0.00 0.00 0.00 65 1011.5
20260508060547 56 207 0.0 0.0 0.00 0.00 0.00 65 1011.6
20260508060027 56 232 0.0 0.0 0.00 0.00 0.00 65 1011.6
20260508055531 56 219 0.0 0.0 0.00 0.00 0.00 65 1011.7
20260508055035 56 205 0.0 0.0 0.00 0.00 0.00 65 1011.7
20260508054521 56 196 0.0 0.0 0.00 0.00 0.00 65 1011.8
20260508054043 56 207 0.0 0.0 0.00 0.00 0.00 65 1011.8
20260508053546 56 185 0.0 0.0 0.00 0.00 0.00 65 1011.8
20260508053049 56 188 0.0 0.0 0.00 0.00 0.00 64 1011.8
20260508052552 56 216 0.0 0.0 0.00 0.00 0.00 64 1011.9
20260508052020 57 219 0.0 0.0 0.00 0.00 0.00 63 1011.9
20260508051525 57 189 0.0 0.0 0.00 0.00 0.00 63 1011.9
20260508051028 57 204 0.0 0.0 0.00 0.00 0.00 62 1011.9
20260508050528 57 213 0.0 0.0 0.00 0.00 0.00 62 1011.8
20260508050033 57 180 0.0 0.0 0.00 0.00 0.00 62 1011.8
20260508045539 57 198 0.0 0.0 0.00 0.00 0.00 62 1011.8
20260508045023 58 195 0.0 0.0 0.00 0.00 0.00 61 1011.9
20260508044527 58 161 0.0 0.0 0.00 0.00 0.00 61 1012.0
20260508044052 58 213 0.0 0.0 0.00 0.00 0.00 61 1012.1
20260508043536 58 197 0.0 0.0 0.00 0.00 0.00 60 1012.0
20260508043022 58 186 0.0 0.0 0.00 0.00 0.00 60 1012.1
20260508042528 58 198 0.0 0.0 0.00 0.00 0.00 60 1012.0
20260508042037 58 214 0.0 0.0 0.00 0.00 0.00 60 1012.1
20260508041522 58 184 0.0 0.0 0.00 0.00 0.00 59 1012.3
20260508041046 58 205 0.0 0.0 0.00 0.00 0.00 59 1012.2
20260508040530 58 208 0.0 0.0 0.00 0.00 0.00 60 1012.3
20260508040035 58 169 0.0 0.0 0.00 0.00 0.00 60 1012.3
20260508035559 58 212 0.0 0.0 0.00 0.00 0.00 60 1012.3
20260508035023 59 181 0.0 0.0 0.00 0.00 0.00 60 1012.3
20260508034528 59 193 0.0 0.0 0.00 0.00 0.00 60 1012.4
20260508034054 59 161 0.0 0.0 0.00 0.00 0.00 60 1012.5
20260508033538 59 190 0.0 0.0 0.00 0.00 0.00 60 1012.6
20260508033022 59 198 0.0 0.0 0.00 0.00 0.00 60 1012.6
20260508032528 59 205 0.0 0.0 0.00 0.00 0.00 59 1012.6
20260508032032 59 178 0.0 0.0 0.00 0.00 0.00 59 1012.6
20260508031557 59 200 0.0 0.0 0.00 0.00 0.00 59 1012.6
20260508031025 59 200 0.0 0.0 0.00 0.00 0.00 59 1012.6
20260508030529 59 185 0.0 0.0 0.00 0.00 0.00 60 1012.5
20260508030032 59 194 0.0 0.0 0.00 0.00 0.00 60 1012.5
20260508025537 59 198 0.0 0.0 0.00 0.00 0.00 60 1012.5
20260508025041 59 200 0.0 0.0 0.00 0.00 0.00 60 1012.5
20260508024525 59 199 0.0 0.0 0.00 0.00 0.00 60 1012.4
20260508024051 59 199 0.0 0.0 0.00 0.00 0.00 59 1012.3
20260508023536 59 199 0.0 0.0 0.00 0.00 0.00 59 1012.3
20260508023020 60 199 0.0 0.0 0.00 0.00 0.00 59 1012.2
20260508022526 60 199 0.0 0.0 0.00 0.00 0.00 58 1012.2
20260508022031 60 199 0.0 0.0 0.00 0.00 0.00 58 1012.1
20260508021537 60 198 0.0 0.0 0.00 0.00 0.00 57 1012.0
20260508021022 60 198 0.0 0.0 0.00 0.00 0.00 57 1011.9
20260508020531 61 198 0.0 0.0 0.00 0.00 0.00 56 1011.9
20260508020036 61 198 0.0 0.0 0.00 0.00 0.00 56 1011.8
20260508015600 61 204 0.0 0.0 0.00 0.00 0.00 56 1011.8
20260508015024 61 180 0.0 0.0 0.00 0.00 0.00 55 1011.8
20260508014529 61 180 0.0 0.0 0.00 0.00 0.00 55 1011.7
20260508014054 61 202 0.0 0.0 0.00 0.00 0.00 55 1011.7
20260508013558 62 202 0.0 0.0 0.00 0.00 0.00 54 1011.7
20260508013022 62 202 0.0 0.0 0.00 0.00 0.00 54 1011.7
20260508012527 62 202 0.0 0.0 0.00 0.00 0.00 53 1011.6
20260508012052 63 202 0.0 0.0 0.00 0.00 0.00 53 1011.6
20260508011536 63 202 0.0 0.0 0.00 0.00 0.00 52 1011.6
20260508011021 63 207 0.0 0.0 0.00 0.00 0.00 51 1011.6
20260508010527 63 194 0.0 0.0 0.00 0.00 0.00 51 1011.5
20260508010031 64 184 0.0 0.0 0.00 0.00 0.00 50 1011.5
20260508005556 64 209 0.0 0.0 0.00 0.00 0.00 50 1011.5
20260508005023 64 200 0.0 0.0 0.00 0.00 0.00 49 1011.4
20260508004547 64 211 0.0 1.0 0.00 0.00 0.00 49 1011.3
20260508004051 65 222 0.0 1.0 0.00 0.00 0.00 48 1011.4
20260508003536 65 253 0.0 1.0 0.00 0.00 0.00 48 1011.4
20260508003022 65 247 0.0 1.0 0.00 0.00 0.00 48 1011.4
20260508002528 65 170 0.0 2.0 0.00 0.00 0.00 47 1011.2
20260508002032 65 216 0.0 2.0 0.00 0.00 0.00 47 1011.2
20260508001557 65 197 0.0 1.0 0.00 0.00 0.00 46 1011.1
20260508001041 66 218 0.0 1.0 0.00 0.00 0.00 46 1011.2
20260508000546 66 186 0.0 1.0 0.00 0.00 0.00 46 1011.1
20260508000029 66 194 0.0 2.0 0.00 0.00 0.00 46 1011.1
20260507235553 66 213 0.0 2.0 0.00 0.00 0.00 45 1011.1
20260507235037 67 216 0.0 2.0 0.00 0.00 0.00 45 1011.1
20260507234522 67 200 0.0 2.0 0.00 0.00 0.00 45 1011.1
20260507234028 67 227 0.0 2.0 0.00 0.00 0.00 44 1011.2
20260507233538 67 213 0.0 11.0 0.00 0.00 0.00 44 1011.2
20260507233043 67 246 0.0 7.0 0.00 0.00 0.00 44 1011.3
20260507232527 67 240 0.0 7.0 0.00 0.00 0.00 43 1011.4
20260507232052 67 185 0.0 1.0 0.00 0.00 0.00 43 1011.4
20260507231536 67 251 0.0 1.0 0.00 0.00 0.00 43 1011.4
20260507231024 67 232 0.0 2.0 0.00 0.00 0.00 43 1011.6
20260507230548 67 190 0.0 2.0 0.00 0.00 0.00 44 1011.6
20260507230032 67 182 0.0 5.0 0.00 0.00 0.00 43 1011.6
20260507225537 67 223 1.0 5.0 0.00 0.00 0.00 42 1011.6
20260507225041 67 225 0.0 5.0 0.00 0.00 0.00 44 1011.7
20260507224524 68 238 0.0 2.0 0.00 0.00 0.00 43 1011.8
20260507224049 67 198 0.0 5.0 0.00 0.00 0.00 43 1011.8
20260507223535 67 234 1.0 10.0 0.00 0.00 0.00 42 1011.9
20260507223020 67 215 0.0 10.0 0.00 0.00 0.00 43 1012.0
20260507222529 67 261 0.0 2.0 0.00 0.00 0.00 43 1012.0
20260507222033 67 267 0.0 3.0 0.00 0.00 0.00 43 1012.0
20260507221539 67 184 0.0 2.0 0.00 0.00 0.00 43 1012.0
20260507221044 67 200 0.0 2.0 0.00 0.00 0.00 42 1012.1
20260507220527 67 252 0.0 2.0 0.00 0.00 0.00 42 1012.1
20260507220032 68 196 0.0 2.0 0.00 0.00 0.00 42 1012.1
20260507215537 67 232 0.0 11.0 0.00 0.00 0.00 41 1012.2
20260507215021 68 248 2.0 11.0 0.00 0.00 0.00 41 1012.2
20260507214527 68 215 0.0 4.0 0.00 0.00 0.00 42 1012.1
20260507214032 67 286 0.0 6.0 0.00 0.00 0.00 43 1012.2
20260507213537 66 251 0.0 6.0 0.00 0.00 0.00 43 1012.2
20260507213025 66 219 0.0 3.0 0.00 0.00 0.00 43 1012.4
20260507212550 67 213 0.0 4.0 0.00 0.00 0.00 42 1012.5
20260507212034 67 249 0.0 4.0 0.00 0.00 0.00 42 1012.4
20260507211539 67 263 0.0 1.0 0.00 0.00 0.00 43 1012.4
20260507211044 66 250 0.0 5.0 0.00 0.00 0.00 43 1012.4
20260507210529 66 192 1.0 5.0 0.00 0.00 0.00 42 1012.4
20260507210035 67 221 0.0 3.0 0.00 0.00 0.00 43 1012.5
20260507205520 66 188 1.0 3.0 0.00 0.00 0.00 43 1012.7
20260507205026 67 226 0.0 6.0 0.00 0.00 0.00 41 1012.7
20260507204531 67 195 0.0 2.0 0.00 0.00 0.00 43 1012.7
20260507204036 67 205 0.0 3.0 0.00 0.00 0.00 41 1012.9
20260507203522 67 234 0.0 11.0 0.00 0.00 0.00 43 1012.9
20260507203031 66 267 1.0 6.0 0.00 0.00 0.00 43 1013.1
20260507202537 66 229 1.0 8.0 0.00 0.00 0.00 42 1013.1
20260507202021 66 187 1.0 8.0 0.00 0.00 0.00 42 1013.2
20260507201526 66 206 0.0 3.0 0.00 0.00 0.00 41 1013.2
20260507201031 66 198 0.0 3.0 0.00 0.00 0.00 42 1013.3
20260507200536 65 246 0.0 2.0 0.00 0.00 0.00 43 1013.3
20260507200022 65 175 0.0 4.0 0.00 0.00 0.00 40 1013.4
20260507195527 66 257 0.0 4.0 0.00 0.00 0.00 41 1013.5
20260507195032 65 260 0.0 10.0 0.00 0.00 0.00 41 1013.7
20260507194558 66 200 1.0 10.0 0.00 0.00 0.00 39 1013.7
20260507194023 66 213 1.0 3.0 0.00 0.00 0.00 40 1013.8
20260507193534 66 207 0.0 2.0 0.00 0.00 0.00 41 1013.8
20260507193039 66 200 0.0 4.0 0.00 0.00 0.00 40 1013.9
20260507192542 65 264 0.0 6.0 0.00 0.00 0.00 41 1014.0
20260507192027 65 210 1.0 6.0 0.00 0.00 0.00 40 1014.1
20260507191533 65 234 0.0 4.0 0.00 0.00 0.00 41 1014.1
20260507191036 64 206 0.0 7.0 0.00 0.00 0.00 40 1014.1
20260507190521 65 227 1.0 13.0 0.00 0.00 0.00 40 1014.2
20260507190027 65 283 2.0 13.0 0.00 0.00 0.00 40 1014.1
20260507185533 65 198 1.0 4.0 0.00 0.00 0.00 39 1014.3
20260507185037 66 238 0.0 3.0 0.00 0.00 0.00 40 1014.2
20260507184523 65 244 0.0 7.0 0.00 0.00 0.00 38 1014.2
20260507184033 65 244 1.0 7.0 0.00 0.00 0.00 40 1014.2
20260507183538 64 206 2.0 8.0 0.00 0.00 0.00 39 1014.2
20260507183024 65 199 0.0 2.0 0.00 0.00 0.00 39 1014.2
20260507182528 65 242 0.0 4.0 0.00 0.00 0.00 38 1014.2
20260507182033 65 267 1.0 4.0 0.00 0.00 0.00 38 1014.3
20260507181558 65 242 0.0 4.0 0.00 0.00 0.00 39 1014.4
20260507181022 64 230 0.0 4.0 0.00 0.00 0.00 39 1014.5
20260507180527 64 244 0.0 2.0 0.00 0.00 0.00 38 1014.7
20260507180033 65 232 0.0 4.0 0.00 0.00 0.00 37 1014.7
20260507175537 65 264 0.0 4.0 0.00 0.00 0.00 38 1014.8
20260507175022 64 259 1.0 3.0 0.00 0.00 0.00 39 1014.9
20260507174530 63 247 0.0 4.0 0.00 0.00 0.00 37 1015.0
20260507174037 64 252 0.0 5.0 0.00 0.00 0.00 37 1015.1
20260507173542 64 277 0.0 5.0 0.00 0.00 0.00 37 1015.1
20260507173026 64 227 0.0 3.0 0.00 0.00 0.00 36 1015.2
20260507172531 64 175 1.0 4.0 0.00 0.00 0.00 38 1015.2
20260507172036 64 287 1.0 4.0 0.00 0.00 0.00 39 1015.3
20260507171521 63 204 0.0 4.0 0.00 0.00 0.00 38 1015.4
20260507171028 63 188 1.0 4.0 0.00 0.00 0.00 38 1015.5
20260507170533 62 222 0.0 5.0 0.00 0.00 0.00 38 1015.6
20260507170038 63 128 1.0 5.0 0.00 0.00 0.00 36 1015.7
20260507165524 62 313 0.0 2.0 0.00 0.00 0.00 38 1015.8
20260507165033 62 223 0.0 4.0 0.00 0.00 0.00 37 1015.8
20260507164538 63 270 1.0 4.0 0.00 0.00 0.00 37 1015.9
20260507164045 63 192 0.0 3.0 0.00 0.00 0.00 37 1015.9
20260507163530 63 248 1.0 2.0 0.00 0.00 0.00 39 1015.9
20260507163035 62 237 0.0 1.0 0.00 0.00 0.00 43 1015.9
20260507162522 61 231 0.0 1.0 0.00 0.00 0.00 41 1016.0
20260507162029 61 248 0.0 1.0 0.00 0.00 0.00 41 1016.0
20260507161533 61 215 0.0 2.0 0.00 0.00 0.00 40 1016.0
20260507161036 60 207 0.0 2.0 0.00 0.00 0.00 41 1016.0
20260507160535 61 213 0.0 2.0 0.00 0.00 0.00 40 1016.0
20260507160040 60 234 0.0 11.0 0.00 0.00 0.00 41 1016.0
20260507155528 60 244 0.0 11.0 0.00 0.00 0.00 39 1016.1
20260507155033 60 193 0.0 1.0 0.00 0.00 0.00 43 1016.0
20260507154519 60 221 0.0 1.0 0.00 0.00 0.00 41 1016.1
20260507154024 60 174 0.0 1.0 0.00 0.00 0.00 43 1016.2
20260507153550 59 167 0.0 0.0 0.00 0.00 0.00 44 1016.2
20260507153054 59 211 0.0 2.0 0.00 0.00 0.00 46 1016.3
20260507152600 59 254 0.0 2.0 0.00 0.00 0.00 46 1016.3
20260507152025 59 232 0.0 1.0 0.00 0.00 0.00 46 1016.5
20260507151531 59 190 0.0 2.0 0.00 0.00 0.00 48 1016.5
20260507151036 59 213 0.0 1.0 0.00 0.00 0.00 47 1016.5
20260507150521 58 208 0.0 1.0 0.00 0.00 0.00 47 1016.4
20260507150024 58 263 0.0 0.0 0.00 0.00 0.00 47 1016.4
20260507145529 58 209 0.0 0.0 0.00 0.00 0.00 47 1016.5
20260507145039 58 228 0.0 2.0 0.00 0.00 0.00 46 1016.5
20260507144525 57 232 0.0 2.0 0.00 0.00 0.00 45 1016.6
20260507144031 57 200 0.0 1.0 0.00 0.00 0.00 46 1016.6
20260507143537 57 273 0.0 2.0 0.00 0.00 0.00 48 1016.5
20260507143023 57 226 0.0 1.0 0.00 0.00 0.00 47 1016.5
20260507142548 56 221 0.0 1.0 0.00 0.00 0.00 47 1016.5
20260507142053 56 219 0.0 1.0 0.00 0.00 0.00 48 1016.6
20260507141538 56 196 0.0 1.0 0.00 0.00 0.00 49 1016.6
20260507141044 56 250 0.0 1.0 0.00 0.00 0.00 51 1016.6
20260507140529 55 223 0.0 1.0 0.00 0.00 0.00 53 1016.6
20260507140035 55 223 0.0 0.0 0.00 0.00 0.00 55 1016.7
20260507135521 54 201 0.0 0.0 0.00 0.00 0.00 57 1016.7
20260507135030 54 163 0.0 0.0 0.00 0.00 0.00 57 1016.7
20260507134536 53 194 0.0 0.0 0.00 0.00 0.00 59 1016.7
20260507134023 53 195 0.0 0.0 0.00 0.00 0.00 58 1016.7
20260507133549 53 191 0.0 0.0 0.00 0.00 0.00 60 1016.7
20260507133031 52 192 0.0 0.0 0.00 0.00 0.00 61 1016.8
20260507132536 52 168 0.0 0.0 0.00 0.00 0.00 61 1016.9
20260507132059 51 202 0.0 0.0 0.00 0.00 0.00 61 1016.8
20260507131524 51 180 0.0 0.0 0.00 0.00 0.00 64 1016.9
20260507131027 50 181 0.0 0.0 0.00 0.00 0.00 65 1016.9
20260507130532 50 180 0.0 0.0 0.00 0.00 0.00 66 1016.9
20260507130038 49 180 0.0 0.0 0.00 0.00 0.00 66 1016.9
20260507125523 49 186 0.0 0.0 0.00 0.00 0.00 67 1016.9
20260507125030 48 200 0.0 0.0 0.00 0.00 0.00 68 1016.9
20260507124534 48 200 0.0 0.0 0.00 0.00 0.00 68 1016.9
20260507124019 48 192 0.0 0.0 0.00 0.00 0.00 70 1016.8
20260507123527 47 200 0.0 0.0 0.00 0.00 0.00 72 1016.7
20260507123034 47 212 0.0 0.0 0.00 0.00 0.00 73 1016.7
20260507122520 46 208 0.0 0.0 0.00 0.00 0.00 74 1016.6
20260507122048 46 208 0.0 0.0 0.00 0.00 0.00 77 1016.6
20260507121533 45 215 0.0 0.0 0.00 0.00 0.00 79 1016.6
20260507121039 45 215 0.0 0.0 0.00 0.00 0.00 79 1016.6
20260507120526 45 215 0.0 0.0 0.00 0.00 0.00 80 1016.5
20260507120031 45 216 0.0 0.0 0.00 0.00 0.00 80 1016.5
20260507115542 45 219 0.0 0.0 0.00 0.00 0.00 81 1016.4
20260507115028 45 220 0.0 0.0 0.00 0.00 0.00 80 1016.4
20260507114554 45 227 0.0 0.0 0.00 0.00 0.00 80 1016.4
20260507114039 45 230 0.0 0.0 0.00 0.00 0.00 80 1016.3
20260507113525 45 252 0.0 0.0 0.00 0.00 0.00 80 1016.3
20260507113052 45 252 0.0 0.0 0.00 0.00 0.00 80 1016.2
20260507112535 45 252 0.0 0.0 0.00 0.00 0.00 80 1016.2
20260507112021 45 252 0.0 0.0 0.00 0.00 0.00 80 1016.2
20260507111528 45 254 0.0 0.0 0.00 0.00 0.00 80 1016.2
20260507111035 45 297 0.0 0.0 0.00 0.00 0.00 79 1016.2
20260507110522 45 297 0.0 0.0 0.00 0.00 0.00 79 1016.0
20260507110045 45 297 0.0 0.0 0.00 0.00 0.00 79 1016.1
20260507105530 45 297 0.0 0.0 0.00 0.00 0.00 79 1016.0
20260507105030 45 297 0.0 0.0 0.00 0.00 0.00 78 1016.0
20260507104534 45 297 0.0 0.0 0.00 0.00 0.00 79 1015.8
20260507104020 45 297 0.0 0.0 0.00 0.00 0.00 79 1015.9
20260507103526 45 297 0.0 0.0 0.00 0.00 0.00 79 1016.0
20260507103052 45 297 0.0 0.0 0.00 0.00 0.00 79 1016.0
20260507102537 45 297 0.0 0.0 0.00 0.00 0.00 80 1016.0
20260507102023 45 299 0.0 0.0 0.00 0.00 0.00 80 1016.0
20260507101529 44 299 0.0 0.0 0.00 0.00 0.00 81 1016.0
20260507101035 44 299 0.0 0.0 0.00 0.00 0.00 81 1016.0
20260507100542 44 299 0.0 0.0 0.00 0.00 0.00 82 1015.9
20260507100027 44 299 0.0 0.0 0.00 0.00 0.00 83 1016.1
20260507095532 44 299 0.0 0.0 0.00 0.00 0.00 84 1016.1
20260507095034 43 299 0.0 0.0 0.00 0.00 0.00 84 1016.0
20260507094523 43 299 0.0 0.0 0.00 0.00 0.00 85 1016.1
20260507094029 43 299 0.0 0.0 0.00 0.00 0.00 86 1016.0
20260507093534 43 299 0.0 0.0 0.00 0.00 0.00 86 1016.0
20260507093037 43 299 0.0 0.0 0.00 0.00 0.00 86 1016.1
20260507092521 42 299 0.0 0.0 0.00 0.00 0.00 87 1016.2
20260507092023 42 299 0.0 0.0 0.00 0.00 0.00 87 1016.2
20260507091529 42 299 0.0 0.0 0.00 0.00 0.00 87 1015.9
20260507091031 41 299 0.0 0.0 0.00 0.00 0.00 87 1015.9
20260507090532 41 299 0.0 0.0 0.00 0.00 0.00 87 1016.0
20260507090019 41 299 0.0 0.0 0.00 0.00 0.00 87 1015.9
20260507085528 41 299 0.0 0.0 0.00 0.00 0.00 87 1015.6
20260507085030 41 299 0.0 0.0 0.00 0.00 0.00 86 1015.7
20260507084535 41 299 0.0 0.0 0.00 0.00 0.00 86 1015.8
20260507084020 41 299 0.0 0.0 0.00 0.00 0.00 86 1015.9
20260507083546 41 299 0.0 0.0 0.00 0.00 0.00 85 1015.8
20260507083049 41 299 0.0 0.0 0.00 0.00 0.00 85 1015.8